Toluca Jose Maria, Mexico

1:09 AM CDT on April 26, 2017 (GMT -0500)
Lic Adolfo Lopez Mateos International

Weather History for MMTO - May, 2014

Change the Weather History Date:

Tuesday, May 6, 2014

  Actual Average Record
Temperature  
Mean Temperature 62 °F -  
Max Temperature 77 °F 74 °F 84 °F (1998)
Min Temperature 46 °F 44 °F 41 °F (1997)
Degree Days  
Heating Degree Days 4    
Growing Degree Days 12 (Base 50)    
Moisture  
Dew Point 41 °F    
Average Humidity 55    
Maximum Humidity 82    
Minimum Humidity 19    
Precipitation  
Precipitation 2.05 in - - ()
Sea Level Pressure  
Sea Level Pressure 30.37 in    
Wind  
Wind Speed 4 mph ()    
Max Wind Speed 16 mph    
Max Gust Speed -    
Visibility 6.1 miles    
Events Rain    
Averages and records for this station are not official NWS values.
T = Trace of Precipitation, MM = Missing Value Source: Averaged Metar Reports

Daily Weather History Graph

Daily Weather History Graph

Search for Another Location

Airport or City:

Trip Planner

Search our weather history database for the weather conditions in past years. The results will help you decide how hot, cold, wet, or windy it might be!

Date:

Astronomy

May. 06, 2014 Rise Set
Actual Time 7:07 AM CDT 8:02 PM CDT
Civil Twilight 6:44 AM CDT 8:26 PM CDT
Nautical Twilight 6:16 AM CDT 8:53 PM CDT
Astronomical Twilight 5:48 AM CDT 9:21 PM CDT
Moon 1:15 PM CDT (5/6) 1:30 AM CDT (5/6)
Length of Visible Light 13h 42m
Length of Day
12h 55m
Waxing Crescent, 46% of the Moon is Illuminated
May 6
Waxing Crescent
May 6
First Quarter
May 14
Full
May 21
Last Quarter
May 28
New

Hourly Weather History & Observations

Time (CDT) Temp. Dew Point Humidity Pressure Visibility Wind Dir Wind Speed Gust Speed Precip Events Conditions
12:45 AM 50.0 °F 39.2 °F 66% 30.41 in 7.0 mi NE 3.5 mph - N/A   Partly Cloudy
1:48 AM 48.2 °F 39.2 °F 71% 30.39 in 7.0 mi SE 4.6 mph - N/A   Partly Cloudy
2:40 AM 50.0 °F 39.2 °F 66% 30.38 in 7.0 mi Calm Calm - N/A   Partly Cloudy
6:42 AM 46.4 °F 35.6 °F 66% 30.36 in 7.0 mi Calm Calm - N/A   Mostly Cloudy
7:45 AM 48.2 °F 37.4 °F 66% 30.39 in 6.0 mi Calm Calm - N/A   Mostly Cloudy
8:43 AM 53.6 °F 39.2 °F 58% 30.40 in 6.0 mi Calm Calm - N/A   Mostly Cloudy
9:46 AM 59.0 °F 37.4 °F 45% 30.40 in 6.0 mi Calm Calm - N/A   Mostly Cloudy
10:42 AM 66.2 °F 41.0 °F 40% 30.41 in 6.0 mi SSE 4.6 mph - N/A   Scattered Clouds
11:45 AM 69.8 °F 37.4 °F 31% 30.39 in 7.0 mi WNW 4.6 mph - N/A   Mostly Cloudy
12:40 PM 71.6 °F 33.8 °F 25% 30.36 in 7.0 mi NNE 5.8 mph - N/A   Mostly Cloudy
1:45 PM 77.0 °F 32.0 °F 19% 30.33 in 7.0 mi SSW 4.6 mph - N/A   Mostly Cloudy
2:47 PM 71.6 °F 39.2 °F 31% 30.30 in 7.0 mi South 13.8 mph - N/A   Overcast
3:41 PM 69.8 °F 39.2 °F 33% 30.30 in 7.0 mi South 15.0 mph - N/A   Mostly Cloudy
4:46 PM 66.2 °F 39.2 °F 37% 30.29 in 7.0 mi SSE 16.1 mph - N/A   Overcast
5:43 PM 57.2 °F 48.2 °F 72% 30.32 in 5.0 mi NNE 13.8 mph - N/A   Overcast
6:45 PM 55.4 °F 48.2 °F 77% 30.32 in 5.0 mi NE 10.4 mph - N/A   Mostly Cloudy
7:48 PM 57.2 °F 46.4 °F 67% 30.33 in 5.0 mi NW 4.6 mph - N/A   Overcast
8:44 PM 57.2 °F 46.4 °F 67% 30.34 in 5.0 mi WNW 8.1 mph - N/A   Overcast
9:44 PM 57.2 °F 46.4 °F 67% 30.40 in 5.0 mi WNW 5.8 mph - N/A   Overcast
10:44 PM 53.6 °F 48.2 °F 82% 30.43 in 5.0 mi WNW 6.9 mph - N/A Rain Rain
11:43 PM 53.6 °F 46.4 °F 77% 30.44 in 5.0 mi WNW 5.8 mph - N/A Rain Rain